Regional Weather Roundup
Issued by NWS Newport/Morehead, NC

Current Version | Previous Version | Text Only | Print | Product List | Glossary Off
Versions: 1 2 3 4 5 6 7 8 9 10 11 12 13 14 15 16 17 18 19 20 21 22 23 24 25 26 27 28 29 30 31 32 33 34 35 36 37 38 39 40 41 42 43 44 45 46 47 48 49 50
000 ASUS42 KMHX 270213 RWRMHX WEATHER ROUNDUP FOR EASTERN NORTH CAROLINA NATIONAL WEATHER SERVICE NEWPORT/MOREHEAD CITY NC 1000 PM EDT THU MAY 26 2016 NOTE: "FAIR" INDICATES FEW OR NO CLOUDS BELOW 12,000 FEET WITH NO SIGNIFICANT WEATHER AND/OR OBSTRUCTIONS TO VISIBILITY NCZ015>017-031-032-045>047-102-103-270300- NORTH COAST CITY SKY/WX TMP DP RH WIND PRES REMARKS EDENTON CLEAR N/A N/A N/A S12 30.14R ELIZABETH CITY CLEAR 73 66 78 S9 30.13R KITTY HAWK CLEAR 72 64 75 SW7 30.14R MANTEO NOT AVBL $$ NCZ045>047-081-094-103-104-270300- CENTRAL COAST CITY SKY/WX TMP DP RH WIND PRES REMARKS FRISCO CLEAR 73 65 75 SW9 30.16R $$ NCZ095-097-098-100-101-270300- SOUTHERN COAST CITY SKY/WX TMP DP RH WIND PRES REMARKS BEAUFORT CLEAR 72 66 81 S7 30.17R CEDAR ISLAND NOT AVBL JACKSONVILLE CLEAR 71 65 81 S6 30.15R PINEY ISLAND CLEAR N/A N/A N/A S6 30.16 WILMINGTON CLEAR 72 63 73 S6 30.16R $$ NCZ011>013-027>030-043-044-078>080-089-090>093-098-270300- COASTAL PLAIN CITY SKY/WX TMP DP RH WIND PRES REMARKS AHOSKIE CLEAR 74 65 73 S6 30.12R CLINTON CLEAR 75 65 70 S7 30.14R ELIZABETHTOWN CLEAR 73 64 72 S5 30.14R GOLDSBORO NOT AVBL GREENVILLE CLEAR 75 63 64 S13 30.14R HAVELOCK PTCLDY 71 65 81 S5 30.17R KENANSVILLE CLEAR 73 63 70 CALM 30.16R KINSTON CLEAR 73 61 64 S9 30.14R NEW BERN CLEAR 71 64 78 S5 30.17R RICHLANDS CLEAR 70 65 84 S5 30.17R ROCKY MOUNT MOCLDY 77 67 71 S7 30.12R WASHINGTON CLEAR 73 63 71 S7 30.14R WHITEVILLE CLEAR 73 65 76 CALM 30.15R $$ AMZ130-135-150-152-154-156-158-170-250-252-270-ANZ085-086-088-633-658-670-270300- MARINE OBSERVATIONS STATION/POSITION TIME TEMP WIND PRES WAVE SWELL AIR SEA DIR/SP/G HT/PER HT/PER (UTC) (F) (DEG/KT/KT) (MB) (FT/S) (FT/S) CHESAPEAKE LIGHT 0200 71 190/ 20/ 21 1020.1 64 E VA BEACH 0150 64 59 200/ 10/ 10 1020.6 3/ 4 2/ 8 DUCK 0100 1019.1 2 E DUCK 0111 65 N/A 2/ 8 OREGON INLET 0100 1020.4 13E OREGON INLT 0200 65 N/A 2/ 8 2/ 8 HATTERAS CG 0100 1020.5 DIAMOND BUOY 0150 76 71 170/ 10/ 12 1021.2 2/ 8 2/ 8 CAPE LOOKOUT 0200 74 180/ 7/ 8 1021.3 BEAUFORT LAB 0100 1020.0 30 SE NEW RVR IN 0125 75 N/A 2/ 8 27 SE WRIGHTSVLE 0108 77 74 170/ 10/ 12 1020.5 5 SE WRIGHTSVLE 0108 75 74 190/ 8/ 12 1021.5 225 S CAPE HAT 0150 76 78 80/ 14/ 16 1020.7 3/11 2/11 41 SE CHARLESTON 0150 78 77 130/ 10/ 14 1020.2 2/ 8 2/ 8 $$

USA.gov is the U.S. government's official web portal to all federal, state and local government web resources and services.